FENGYUN 4A

Last updated on Sat Sep 05 2026 00:02:40 GMT+0000 (Coordinated Universal Time)

1 41882U 16077A 26247.69161375 -.00000366 00000+0 00000+0 0 9997 2 41882 2.5173 79.2656 0008225 166.1297 110.6944 1.00265921 35725
UTC large
Height (km)
Speed (km/s)
/
Latitude / Longitude
Inclination (degrees)
Orbital Period (minutes)
Azimuth
Elevation
Range (km)
Doppler Factor

Next 0 passes for location: London (51.5072 / 0.1276)

No passes found over London.
FENGYUN 4A